This is the latest recevied weather packets stored in our database for station/object KC1DMA. If no packets are shown the sender has not sent any weather packets the latest 10 day(s).
| Time | Temp. | Humidity | Pressure | Rain* | Wind** | Luminosity | Snow |
|---|---|---|---|---|---|---|---|
| 1777604468 | 8.33° C | 83% | 1010.3 hPa | - | - | 0 W/m² | - |
| 1777604167 | 8.33° C | 83% | 1010.3 hPa | - | - | 0 W/m² | - |
| 1777603864 | 8.33° C | 83% | 1010.3 hPa | - | - | 0 W/m² | - |
| 1777603561 | 8.33° C | 84% | 1010.3 hPa | - | - | 0 W/m² | - |
| 1777603256 | 8.33° C | 86% | 1010.2 hPa | - | - | 0 W/m² | - |
| 1777602952 | 8.89° C | 87% | 1010.3 hPa | - | - | 0 W/m² | - |
| 1777602648 | 8.33° C | 88% | 1010.1 hPa | - | - | 0 W/m² | - |
| 1777602348 | 8.33° C | 91% | 1010.3 hPa | - | - | 0 W/m² | - |
| 1777602045 | 8.33° C | 94% | 1010.1 hPa | - | - | 0 W/m² | - |
| 1777601744 | 7.78° C | 97% | 1010.1 hPa | - | - | 0 W/m² | - |
| 1777601440 | 8.33° C | 98% | 1010.2 hPa | - | - | 0 W/m² | - |
| 1777601137 | 8.33° C | 98% | 1010.2 hPa | - | - | 0 W/m² | - |
| 1777600834 | 8.33° C | 98% | 1010.1 hPa | - | - | 0 W/m² | - |
| 1777600529 | 8.89° C | 98% | 1009.9 hPa | - | - | 0 W/m² | - |
| 1777600226 | 8.89° C | 98% | 1010 hPa | - | - | 0 W/m² | - |
| 1777599921 | 8.89° C | 98% | 1010.1 hPa | - | - | 0 W/m² | - |
| 1777599618 | 8.89° C | 98% | 1010 hPa | - | - | 0 W/m² | - |
| 1777599315 | 9.44° C | 98% | 1010 hPa | - | - | 0 W/m² | - |
| 1777599011 | 9.44° C | 98% | 1010 hPa | - | - | 0 W/m² | - |
| 1777598708 | 9.44° C | 98% | 1009.9 hPa | - | - | 0 W/m² | - |
| 1777598404 | 9.44° C | 98% | 1009.9 hPa | - | - | 0 W/m² | - |
| 1777598103 | 10° C | 98% | 1009.9 hPa | - | - | 0 W/m² | - |
| 1777597797 | 10° C | 98% | 1009.9 hPa | - | - | 0 W/m² | - |
| 1777597491 | 10° C | 98% | 1009.7 hPa | - | - | 0 W/m² | - |
| 1777597188 | 10° C | 98% | 1009.6 hPa | - | - | 0 W/m² | - |
* Rain since midnight (hover to see other rain measurements)
** Current wind speed in m/s (hover to see current wind gust speed)